Theta_e
297 296 296 296 295 295 296 296 297 297 297 297 298 305 305 306 302 302 300 302 302 306 306 307 308 308 307 304 302 298 300 301 305 304 306 305 306 307 314 346 344 342 342 340 339
295 295 295 295 296 296 296 297 297 298 298 299 299 301 304 307 303 301 300 301 302 305 306 306 305 305 302 305 301 299 298 301 302 304 305 304 305 306 333 342 345 343 339 339 341
295 295 295 296 296 296 297 298 300 300 301 300 300 301 303 308 301 300 300 301 302 305 305 306 306 305 304 303 303 301 302 302 305 305 303 304 305 306 333 318 342 343 341 338 340
295 295 296 296 297 297 298 301 302 302 301 301 303 306 304 308 304 300 301 301 302 303 305 305 303 305 303 305 302 306 303 305 305 304 303 305 303 306 313 316 336 340 339 338 339
296 296 297 297 297 297 300 302 303 302 301 301 306 305 302 297 299 300 301 302 302 303 302 302 304 305 305 305 304 305 305 304 302 302 301 302 305 306 304 317 341 340 338 338 338
297 297 297 297 297 300 302 303 302 303 304 305 307 304 300 298 300 301 301 302 302 302 301 302 305 304 305 305 305 305 305 302 299 297 299 298 304 304 301 307 343 341 339 338 338
298 298 298 298 300 301 303 303 304 306 307 304 302 300 298 299 300 302 302 301 301 301 301 301 303 302 304 305 302 304 305 302 297 295 297 296 304 300 299 302 312 336 339 337 337
299 299 299 300 301 303 303 304 306 306 306 305 302 300 299 301 301 302 302 301 301 300 301 303 304 297 297 300 296 296 296 297 297 296 297 301 304 300 307 307 306 306 306 328 337
299 299 299 300 302 302 303 304 304 304 305 305 303 300 298 302 301 301 301 300 300 300 300 301 298 294 294 299 295 293 296 296 296 295 296 298 299 304 304 303 302 301 303 305 311
299 299 300 301 301 305 303 303 304 303 303 301 301 299 298 299 300 301 301 301 298 297 297 295 292 294 292 293 296 296 296 295 296 295 295 295 296 308 303 302 300 299 298 299 301
297 299 300 301 305 306 306 304 298 298 300 298 299 297 299 300 301 300 300 301 298 294 295 295 295 295 296 296 295 295 295 296 295 296 296 294 298 308 304 302 300 298 297 296 297
296 300 301 302 304 305 305 305 304 300 299 300 300 299 300 300 298 300 300 299 298 297 295 296 297 296 298 296 296 297 297 297 295 297 296 294 306 304 303 303 300 298 297 296 295
298 302 303 304 305 304 304 304 304 305 297 299 300 301 300 301 299 299 298 298 298 299 295 298 299 299 300 299 298 299 300 300 299 297 295 295 302 303 302 300 300 299 298 296 295
300 304 305 304 305 304 304 305 304 307 297 300 301 302 300 298 301 301 301 299 299 300 300 299 299 300 300 301 300 298 301 302 301 299 297 296 293 302 301 300 299 298 298 296 295
303 305 306 305 307 306 307 304 305 306 298 301 302 302 298 300 300 301 301 299 300 301 300 301 301 300 301 301 302 300 301 302 301 300 297 296 294 300 301 300 298 297 297 296 295
304 305 305 305 306 306 306 306 307 301 293 301 302 302 301 300 301 300 301 300 300 300 300 301 301 299 299 300 300 300 301 299 295 296 298 297 294 301 300 300 298 297 296 295 295
303 305 304 305 304 306 310 305 300 297 300 303 303 303 302 301 301 301 300 300 301 301 301 300 301 300 299 300 299 298 298 296 297 298 299 299 299 298 298 299 296 295 295 295 294
303 304 305 306 307 307 306 297 293 302 303 303 303 303 303 302 302 301 301 300 300 300 299 301 302 297 297 299 298 298 301 299 303 301 301 299 302 297 296 296 295 294 294 294 293
303 303 304 306 308 308 297 294 297 303 303 304 304 303 303 302 301 301 301 301 300 301 303 302 304 297 296 296 294 298 303 303 305 302 302 302 298 296 295 293 294 293 293 293 293
304 302 302 305 305 301 297 301 301 302 303 305 304 303 303 302 302 302 302 300 302 301 299 303 301 296 296 293 293 296 296 304 300 300 303 300 294 290 293 293 294 293 293 293 292
305 299 304 307 301 296 296 301 303 302 304 304 304 304 304 303 302 303 304 302 302 302 301 301 299 296 293 290 288 294 297 297 301 304 300 299 289 293 294 294 294 294 293 292 292
299 301 304 303 297 293 299 302 302 302 303 304 303 304 303 302 302 305 305 304 302 302 302 299 296 294 293 292 293 293 294 297 301 302 299 298 295 293 293 293 293 292 292 292 291
298 297 302 300 295 295 299 301 302 302 302 303 304 302 300 302 301 302 302 303 299 297 301 297 297 298 298 293 292 291 295 294 296 298 297 297 296 293 294 293 293 293 292 292 291
295 298 297 294 293 297 301 302 302 302 302 304 305 303 302 301 300 301 301 302 303 298 298 294 292 289 292 287 288 292 296 293 295 296 296 295 294 294 295 294 293 293 292 291 291
294 297 296 296 298 299 300 302 302 303 302 301 303 304 303 302 302 301 301 300 302 301 295 292 289 287 288 291 295 297 297 294 294 294 293 293 294 295 295 294 293 293 292 291 291
297 298 294 297 298 299 299 302 302 302 301 302 303 303 302 302 301 301 300 300 299 299 296 292 291 289 290 295 296 299 295 296 295 294 295 294 294 294 293 293 293 293 292 291 291
301 298 296 295 296 297 298 301 303 301 302 302 301 300 301 300 298 299 298 298 299 299 296 293 292 291 290 296 297 299 292 291 291 292 291 293 293 292 292 293 293 291 290 290 290
Wind_Speed
4 5 5 6 7 7 8 9 9 7 7 6 4 3 2 9 16 24 17 19 19 15 14 15 9 11 3 2 3 4 5 1 2 4 6 5 7 6 4 4 4 8 3 12 27
5 5 6 7 8 8 9 9 8 7 7 6 5 1 2 6 7 18 22 21 19 16 12 14 8 11 4 3 4 5 4 8 3 2 4 5 2 5 4 4 4 5 14 26 27
5 6 7 7 8 9 9 8 8 8 6 6 5 3 0 4 4 6 26 20 17 13 11 7 4 2 4 3 5 2 4 1 2 4 3 5 7 5 2 5 5 5 14 19 25
6 7 7 7 7 7 8 8 9 7 6 5 5 5 6 3 2 12 24 19 12 10 12 8 5 4 4 3 4 3 4 2 4 5 6 8 8 6 3 6 4 13 15 19 18
6 6 6 7 7 7 7 8 8 5 3 3 6 6 4 6 3 20 22 12 7 8 11 5 6 2 3 1 2 3 4 5 8 7 7 7 4 3 17 21 6 14 14 14 14
6 7 7 7 7 6 7 6 4 5 5 4 5 6 4 6 14 18 17 13 12 9 7 8 3 1 4 3 3 2 2 5 7 9 4 8 5 6 19 17 2 11 14 12 13
8 7 7 6 6 6 5 5 9 9 7 10 11 11 11 1 12 20 20 17 10 5 3 6 5 6 2 3 5 3 3 4 11 11 5 7 7 9 16 16 16 7 10 14 14
7 6 6 7 6 6 6 8 7 7 6 6 7 4 4 13 11 21 32 17 14 11 4 9 9 6 5 3 6 6 6 5 6 13 7 7 5 19 19 17 20 21 16 9 14
6 7 7 6 7 8 5 5 5 6 8 6 6 6 3 16 17 20 18 15 7 12 17 13 11 4 8 4 4 7 3 4 6 6 5 7 4 15 18 18 20 19 20 20 21
6 6 5 6 8 7 7 11 9 9 7 6 7 6 7 7 13 25 14 21 9 4 7 11 6 5 6 7 1 3 3 3 4 7 6 7 5 10 15 19 18 18 19 20 21
6 5 5 7 10 7 4 4 6 7 12 4 1 5 2 5 13 22 22 10 9 9 6 7 8 5 4 4 3 5 3 3 3 4 7 3 6 12 13 20 20 20 20 21 21
7 5 6 9 15 7 10 7 3 2 4 6 3 3 3 5 7 19 19 7 8 5 4 7 7 4 6 7 8 6 3 4 4 5 4 4 7 7 13 14 14 16 19 21 24
7 6 6 7 7 17 20 9 6 5 5 4 1 1 3 11 5 10 9 3 7 7 7 7 4 6 6 8 6 3 4 2 3 5 1 3 1 7 5 13 15 17 15 18 20
9 8 7 5 5 5 5 7 6 2 4 4 4 2 4 5 4 11 9 3 7 4 3 6 7 7 7 5 5 3 4 2 5 5 2 2 4 3 8 10 17 17 18 19 21
9 9 9 3 5 3 4 4 4 2 4 2 2 2 8 8 3 13 11 8 6 6 4 0 6 7 7 4 4 3 6 4 3 4 1 1 3 5 6 10 18 17 18 18 18
7 7 5 6 6 4 3 2 2 6 3 4 2 3 6 7 5 7 8 8 2 5 7 3 2 4 3 4 3 5 3 2 3 2 1 3 4 2 5 11 15 15 18 18 18
6 8 9 7 3 5 3 4 5 6 4 6 3 4 6 4 4 6 6 8 4 2 5 4 4 2 4 5 5 8 5 3 3 2 3 2 3 2 6 9 11 17 18 17 16
9 11 13 11 7 5 4 6 6 3 3 4 4 6 5 3 3 5 3 6 6 4 3 4 5 6 7 4 3 4 1 2 3 2 3 4 3 3 4 6 6 9 13 14 16
5 6 9 11 8 3 6 6 5 2 3 4 2 4 5 5 4 4 3 3 2 5 3 2 1 3 6 2 3 5 1 3 3 1 1 2 3 7 11 9 9 10 14 15 15
2 3 9 10 6 5 5 4 0 3 3 1 3 3 2 6 4 4 4 3 5 4 2 1 0 3 3 5 4 2 5 1 2 2 4 1 0 4 14 13 14 12 14 15 15
3 4 12 4 6 6 4 2 1 3 2 4 3 3 3 2 3 2 3 1 4 5 2 2 3 4 4 4 2 5 4 4 3 2 3 2 4 2 8 10 13 13 13 13 14
4 3 11 3 4 2 2 1 2 5 6 4 4 3 3 3 3 2 3 1 6 1 1 2 3 2 4 3 2 2 7 4 3 2 2 1 1 3 9 8 9 13 13 12 11
3 1 8 1 4 2 2 4 3 4 4 3 3 4 4 2 2 3 2 3 6 4 2 1 2 1 1 0 3 4 12 10 6 1 3 2 2 9 9 12 10 12 13 13 12
3 3 4 6 1 6 4 3 2 3 4 5 3 4 3 4 5 1 3 3 2 3 10 5 3 3 4 5 3 3 8 13 7 3 2 3 8 9 10 12 12 12 12 13 12
4 1 2 1 3 3 3 2 2 3 2 4 2 2 3 2 1 2 1 2 4 6 4 4 3 3 2 1 2 2 4 7 10 7 2 5 6 10 11 10 10 12 11 10 11
4 4 3 2 2 3 4 1 2 1 3 2 4 2 2 4 3 1 1 1 1 4 3 2 2 2 4 5 7 3 5 1 2 2 2 8 9 6 9 8 8 11 10 12 13
3 3 4 4 2 3 2 2 2 3 2 3 5 4 3 4 5 5 4 2 1 4 2 3 5 3 4 4 6 6 3 3 2 2 3 3 5 5 8 9 6 9 7 9 10
Wind_Direction
19 13 358 351 342 344 353 358 357 357 353 359 26 125 92 28 44 48 42 349 353 351 351 359 27 17 12 49 47 122 61 154 248 162 290 324 3 309 286 61 39 358 132 138 145
14 5 354 349 346 353 356 355 349 344 349 1 17 27 249 2 27 42 0 358 1 1 4 20 5 356 35 358 15 79 103 214 217 241 296 290 313 302 20 4 43 52 84 128 143
10 6 357 356 352 356 352 348 340 338 343 356 15 16 223 7 56 336 352 350 356 6 3 18 20 5 61 359 0 105 149 194 5 280 298 280 332 303 359 334 187 174 149 151 149
10 4 359 343 346 350 343 342 338 339 348 6 43 62 104 39 47 338 347 339 345 2 25 23 28 41 66 47 333 93 48 21 291 307 328 317 326 346 338 307 360 148 162 159 159
6 354 339 336 338 348 347 348 349 357 14 61 93 97 77 46 353 343 351 355 359 17 31 35 48 41 68 49 8 57 348 330 328 347 25 308 355 308 17 328 101 135 159 177 167
352 344 339 340 349 358 359 2 31 60 73 94 101 102 56 72 352 353 10 13 21 20 16 36 22 327 96 84 73 300 314 16 3 6 33 4 313 34 343 343 0 150 171 181 187
350 354 2 2 8 15 30 53 99 81 63 92 87 86 68 97 350 25 9 13 0 8 30 38 26 72 330 88 334 7 17 6 13 340 17 320 45 24 345 353 23 325 193 194 194
11 14 14 17 34 49 68 99 89 70 54 68 47 64 78 359 7 27 19 21 54 47 70 59 96 95 46 321 23 38 44 17 352 9 336 9 110 20 7 29 22 10 1 316 196
19 18 19 37 61 55 85 105 92 65 58 64 34 72 18 13 15 9 5 2 20 51 66 62 64 77 9 64 31 13 79 2 333 61 355 41 341 23 17 32 24 16 6 3 355
18 17 30 64 47 31 109 92 91 54 44 48 46 54 353 333 356 13 16 21 42 356 25 34 51 69 16 42 186 13 35 6 313 338 24 51 3 32 24 38 24 15 10 5 358
22 21 58 69 28 59 89 81 24 4 31 75 147 113 266 350 24 16 4 0 30 50 51 16 66 63 33 32 105 87 74 1 298 323 22 68 53 33 24 37 26 14 9 3 357
25 39 78 64 50 65 62 71 63 209 42 30 53 50 44 37 19 354 13 54 39 44 357 33 47 349 78 52 83 50 72 346 304 331 15 35 110 85 43 40 31 18 9 3 358
45 56 74 76 66 61 71 58 18 125 99 333 9 91 85 73 39 335 19 30 50 42 42 84 351 57 68 39 43 73 81 352 275 318 52 63 93 34 10 37 24 17 10 7 1
49 55 45 97 62 54 58 23 25 67 77 320 354 36 45 115 63 24 17 33 34 45 61 60 344 42 41 53 22 1 350 3 325 9 271 66 275 21 355 12 20 11 5 0 356
51 53 52 79 100 58 346 3 8 63 42 326 352 40 44 79 299 351 5 31 59 15 81 349 35 23 38 356 331 296 320 282 269 222 337 242 132 317 343 352 1 360 359 353 355
43 46 60 65 64 41 9 19 59 46 265 355 44 55 64 27 30 349 19 43 49 57 47 64 345 64 293 307 87 303 348 13 48 94 291 309 167 36 9 348 342 347 347 351 347
53 58 68 56 57 13 17 49 37 106 293 345 358 68 84 39 53 32 22 39 44 34 13 355 43 24 11 354 6 14 34 345 354 14 228 138 57 100 11 1 358 341 337 344 344
79 72 64 54 25 14 43 56 76 272 342 335 24 51 69 33 40 20 32 22 18 61 73 43 339 17 343 64 287 313 29 154 240 289 289 310 195 172 47 5 348 339 336 339 340
67 55 44 15 16 37 71 55 186 221 299 352 28 53 19 10 98 77 48 4 21 29 69 60 209 346 53 39 23 342 33 5 287 131 246 156 76 208 359 356 342 344 343 343 339
32 48 28 7 18 71 72 129 291 236 345 38 91 30 88 357 54 61 9 308 343 52 116 141 88 37 356 32 21 73 306 25 7 285 259 85 259 264 343 338 333 339 341 334 340
33 50 2 18 52 51 105 150 100 347 97 58 76 78 75 71 43 35 343 22 358 327 3 101 120 313 49 16 220 353 14 325 291 226 217 235 261 310 325 333 336 324 335 331 331
81 43 350 28 50 26 76 47 68 360 44 66 84 76 75 59 42 56 31 339 345 337 27 340 112 74 187 212 169 46 345 297 272 344 345 336 266 340 345 330 334 327 329 329 321
87 260 10 43 103 10 8 43 74 38 21 73 74 65 56 91 89 28 16 76 40 56 33 59 63 38 199 26 21 41 354 342 246 167 22 337 8 2 342 341 329 312 322 322 332
83 38 341 47 50 115 95 34 78 30 46 67 115 74 78 51 25 71 28 7 32 95 57 82 70 164 170 199 185 6 2 9 17 35 344 14 326 330 333 330 316 313 319 327 331
39 241 189 325 352 85 81 68 52 22 67 39 66 108 143 123 27 19 28 340 59 13 45 85 95 43 14 158 210 251 22 34 44 15 56 289 297 307 314 305 299 308 298 310 323
120 130 26 62 24 61 4 72 127 90 27 348 118 113 163 144 165 192 193 47 234 33 63 22 131 89 329 246 250 224 78 35 27 345 306 293 297 250 312 303 303 305 315 325 333
123 102 100 321 48 73 252 166 155 118 54 48 141 100 88 167 154 143 128 118 162 152 126 101 128 101 274 243 258 263 210 186 245 243 228 296 263 300 310 317 309 315 327 316 308